Terminal Aerodrome Forecast
Issued by NWS Lake Charles, LA

Home | Current Version | Previous Version | Text Only | Print | Product List | Glossary On
Versions: 1 2 3 4 5 6 7 8 9 10 11 12 13 14 15 16 17
000
FTUS44 KLCH 110500
TAFARA
TAF
KARA 110520Z 1106/1206 00000KT P6SM SKC
     FM111600 18007KT P6SM VCTS SCT040CB=

USA.gov is the U.S. government's official web portal to all federal, state and local government web resources and services.